Wind_Speed
10 10 10 9 9 9 8 8 8 8 9 8 8 8 8 9 9 10 10 11 11 11 12 12 12 13 13 13 14 14 15 16 17 17 18 19 20 20 20 21 22 23 23
10 10 10 10 9 9 9 9 9 10 10 9 9 9 9 10 10 11 11 12 12 13 13 13 14 14 14 14 15 16 16 17 18 18 19 20 20 21 21 22 23 23 25
11 10 11 10 10 9 10 11 11 11 11 10 10 10 10 11 11 11 12 13 14 14 14 14 14 14 14 15 16 17 17 18 18 19 20 20 20 21 21 23 24 25 26
11 10 11 11 11 11 11 11 12 11 11 11 11 11 11 11 12 12 13 14 14 15 15 15 14 14 15 16 17 17 18 18 18 20 20 21 20 21 22 23 24 25 25
11 11 11 11 11 11 11 12 12 12 11 11 12 12 12 12 13 13 13 14 14 15 15 14 15 16 16 17 18 18 19 19 20 20 21 21 21 22 23 24 24 24 25
12 11 12 13 13 12 12 12 12 12 12 13 13 13 13 13 13 13 14 14 14 14 14 15 16 16 17 18 18 19 19 20 20 21 21 21 22 23 23 24 24 25 26
13 12 13 14 13 13 13 13 13 13 14 14 14 14 13 14 14 14 14 14 14 14 15 15 16 16 17 18 18 19 20 20 20 21 22 22 23 24 24 24 25 26 26
14 13 13 14 14 14 14 14 14 15 15 14 14 14 14 15 15 14 14 14 14 14 15 16 16 17 18 19 19 19 19 20 21 21 22 23 24 24 25 26 27 27 28
15 15 15 15 15 15 15 15 15 15 15 15 15 16 16 16 16 15 14 14 15 15 16 17 17 18 18 19 19 19 20 21 22 22 23 24 25 25 26 27 28 29 29
16 17 17 16 15 16 16 16 16 16 16 16 17 17 17 17 16 16 16 16 16 16 17 17 17 18 18 19 19 20 21 22 22 23 24 25 26 27 28 28 29 29 30
18 17 17 16 16 17 17 17 17 17 17 17 17 17 17 17 17 17 17 18 17 17 18 18 19 19 20 20 21 21 22 23 24 25 25 26 27 28 29 29 30 30 31
20 19 17 16 17 18 18 18 19 18 18 18 18 18 18 18 18 18 18 18 18 19 19 20 20 20 21 22 22 23 23 24 25 26 27 28 29 29 30 30 30 31 31
21 19 18 17 18 19 19 19 19 19 19 19 19 19 19 19 19 19 19 19 20 20 21 21 22 22 23 23 23 24 25 26 27 28 29 29 30 30 31 31 32 32 33
22 20 20 20 20 20 20 21 21 21 21 21 21 21 21 20 20 20 20 21 21 22 23 23 23 24 24 24 25 26 27 27 28 29 30 30 31 32 32 33 33 33 33
24 23 23 22 23 22 22 22 22 22 22 22 22 22 22 21 21 21 21 22 22 23 24 24 24 25 25 26 26 27 28 28 29 30 31 31 32 33 33 34 34 34 34
25 24 24 24 25 24 24 23 23 23 23 23 23 23 22 23 23 23 23 23 24 24 24 24 25 26 26 27 28 29 30 30 30 31 31 32 33 33 34 35 35 35 35
28 27 25 25 25 25 25 24 24 24 25 25 24 24 24 25 25 25 25 24 24 25 25 26 27 27 27 28 29 30 31 31 31 32 33 34 34 35 35 36 36 36 37
28 28 28 27 26 26 26 26 25 25 25 25 25 26 26 26 26 26 26 26 26 27 27 28 29 29 29 30 31 32 32 33 33 34 35 35 36 36 36 37 37 37 37
29 28 27 27 27 27 28 27 26 26 26 26 26 26 27 27 27 28 28 28 28 29 29 29 30 31 31 32 33 33 34 35 35 35 36 37 37 37 37 37 37 38 38
29 29 29 28 29 29 29 27 27 27 28 28 28 28 28 28 29 29 29 30 30 30 31 32 32 32 33 34 34 35 35 35 36 37 38 38 38 38 38 38 38 38 38
30 30 30 30 30 29 29 28 28 29 29 29 29 30 30 30 30 30 31 31 31 32 32 33 33 33 34 35 35 36 36 36 37 37 38 39 39 38 38 38 38 38 37
30 30 31 31 30 30 29 29 29 30 30 30 31 30 30 30 31 31 31 31 32 32 33 33 34 35 35 35 36 36 37 37 37 38 38 38 38 38 37 37 38 38 37
31 31 31 31 30 29 29 29 30 30 31 31 31 31 31 31 32 31 31 32 33 33 34 34 34 35 35 35 36 36 37 37 38 38 38 38 38 38 37 38 38 37 37
30 30 30 31 30 30 30 30 30 30 31 31 31 31 32 32 32 32 32 33 33 34 34 34 34 34 34 35 36 36 36 36 37 37 38 38 38 38 37 37 37 37 37
29 29 30 30 30 30 30 31 31 31 31 31 31 32 32 33 33 33 33 34 34 34 34 33 32 33 34 35 35 35 36 37 38 38 38 38 37 37 36 36 36 37 37
29 30 30 30 29 29 30 30 31 31 31 31 31 32 33 33 33 34 34 33 33 33 33 33 33 33 34 34 35 36 37 38 38 38 37 37 36 37 37 36 36 36 36
Wind_Direction
349 344 344 336 329 330 326 324 322 319 315 311 310 314 316 316 314 313 312 310 308 307 305 304 304 306 308 305 306 306 305 303 301 300 301 301 300 299 297 297 296 294 293
345 341 338 336 329 325 323 322 318 316 314 313 313 311 311 313 313 312 312 310 307 306 307 307 307 305 306 306 307 306 304 302 301 301 302 301 300 298 299 298 298 297 294
341 339 338 334 329 327 325 323 319 315 315 314 312 308 308 309 311 311 310 309 308 306 306 307 305 303 304 306 306 305 305 305 304 304 305 304 302 300 300 300 300 297 296
336 334 336 334 331 328 327 324 323 319 316 314 312 309 309 308 307 308 306 307 307 305 305 304 303 302 303 304 305 305 305 305 304 305 307 307 304 303 304 303 302 300 299
328 329 331 331 329 327 326 323 320 318 315 313 312 311 311 311 310 308 306 307 307 306 305 304 304 304 305 304 303 303 304 305 305 306 307 307 306 306 307 308 306 304 304
320 320 323 325 325 324 324 322 318 315 313 311 310 309 310 310 311 309 307 306 307 307 307 308 307 306 306 305 303 303 304 305 306 308 309 309 309 309 308 308 308 307 306
313 313 316 318 318 320 321 321 318 315 314 312 312 311 311 310 310 309 307 306 308 311 312 312 311 311 309 308 307 307 307 308 308 308 310 311 310 310 309 308 308 308 309
305 306 308 311 314 316 317 318 318 315 316 317 311 311 313 312 310 310 310 309 310 312 313 313 313 313 312 311 310 309 308 308 309 308 310 311 311 311 311 310 309 309 308
303 306 305 307 309 312 313 313 313 315 317 317 313 310 309 309 312 311 309 309 310 310 313 313 313 312 312 312 311 310 309 309 311 311 312 314 314 312 312 311 311 311 310
301 300 305 303 306 307 309 310 312 311 312 313 312 309 308 309 310 311 308 310 311 311 312 312 312 313 313 313 313 312 311 312 313 315 316 316 315 314 314 313 313 312 311
298 299 303 300 302 302 304 306 309 309 311 312 312 311 310 309 308 307 308 309 309 309 310 310 310 311 312 312 313 312 312 312 313 315 316 317 318 317 317 316 314 313 312
298 299 298 298 299 299 300 302 304 307 310 311 310 311 310 307 305 304 304 305 306 306 307 308 309 309 309 310 311 311 311 311 313 314 315 317 318 318 318 317 317 316 315
295 293 291 291 295 295 296 298 301 304 307 308 309 310 309 307 305 302 302 303 303 304 305 305 305 305 307 308 310 310 310 311 312 313 314 315 316 317 317 317 316 316 315
291 291 293 294 293 291 291 294 297 300 303 305 305 306 306 305 304 303 301 302 303 304 304 303 303 304 305 306 308 309 310 311 311 312 314 315 315 316 316 316 316 316 315
288 289 289 291 291 291 289 291 295 297 299 301 302 302 303 303 302 301 300 301 302 303 303 302 303 305 305 306 308 309 309 309 310 312 313 314 315 315 315 315 315 315 315
284 286 285 287 290 290 289 290 292 296 297 298 298 299 299 301 302 302 302 302 302 303 303 303 303 305 305 306 307 309 309 309 310 311 312 313 314 315 315 315 315 315 315
283 283 285 286 288 288 287 288 291 293 296 297 297 296 297 298 299 300 300 300 301 303 303 302 302 303 304 306 307 307 308 308 309 310 312 313 314 314 315 315 314 314 314
282 283 283 283 285 285 286 287 290 293 294 295 295 294 294 296 297 297 297 298 300 301 302 301 300 301 302 304 305 306 306 306 307 308 310 312 313 313 314 314 313 314 314
280 281 281 282 284 284 285 287 289 290 292 294 294 294 293 295 295 295 295 296 298 299 299 300 300 301 302 303 303 304 305 306 307 308 309 310 310 311 312 313 313 313 314
278 280 281 282 284 286 286 285 288 289 290 291 292 293 293 293 294 295 294 294 295 296 297 297 299 300 301 302 303 303 304 305 306 308 309 309 309 310 311 311 312 313 313
278 279 280 282 284 284 284 284 286 288 288 288 290 292 291 292 293 294 294 294 295 296 297 298 299 299 300 301 301 302 303 303 304 306 308 309 309 310 311 311 312 313 313
277 279 280 283 283 282 281 283 285 287 288 289 290 290 291 291 292 293 294 294 295 296 297 298 298 299 299 300 301 302 303 303 304 306 308 308 309 310 311 311 313 314 313
278 279 281 283 281 280 281 283 285 286 287 288 289 290 290 292 292 292 293 296 296 296 297 296 296 297 298 299 301 302 303 304 305 307 309 310 310 311 311 311 312 312 313
278 278 281 282 282 281 283 284 285 286 287 287 288 290 291 291 291 291 293 295 296 297 297 297 296 297 299 301 303 304 305 306 307 308 309 310 310 311 311 311 311 311 312
278 279 281 281 280 281 283 284 285 286 286 287 289 289 290 290 290 291 293 295 295 296 296 296 297 298 300 302 303 304 306 306 307 308 309 310 311 311 312 312 312 313 313
278 280 281 280 281 282 283 284 285 286 286 288 289 290 290 290 291 292 293 294 294 295 296 297 299 299 301 302 303 305 306 307 307 308 309 310 311 311 312 313 313 314 314
Height
5902 5901 5899 5898 5896 5895 5894 5893 5891 5890 5889 5887 5886 5885 5883 5882 5881 5879 5878 5876 5875 5874 5872 5871 5870 5869 5868 5866 5865 5863 5861 5860 5858 5857 5854 5853 5851 5849 5847 5845 5843 5842 5840
5902 5900 5898 5897 5896 5894 5893 5891 5890 5889 5887 5886 5884 5883 5882 5880 5879 5877 5876 5874 5873 5871 5870 5869 5867 5866 5865 5863 5862 5860 5858 5856 5855 5853 5851 5848 5846 5844 5842 5840 5838 5836 5834
5901 5899 5898 5896 5894 5893 5891 5890 5888 5887 5885 5884 5883 5881 5880 5878 5877 5875 5873 5872 5870 5869 5867 5866 5864 5863 5862 5860 5858 5857 5855 5853 5850 5848 5846 5844 5841 5839 5837 5835 5832 5830 5827
5900 5898 5897 5895 5893 5892 5890 5888 5887 5885 5884 5882 5881 5879 5877 5876 5874 5872 5871 5869 5867 5866 5864 5862 5861 5860 5858 5857 5855 5853 5851 5849 5846 5844 5842 5839 5837 5834 5832 5829 5827 5824 5821
5899 5897 5896 5894 5892 5890 5888 5887 5885 5884 5882 5880 5879 5877 5875 5873 5872 5870 5868 5866 5864 5863 5861 5859 5857 5856 5855 5853 5851 5849 5847 5845 5842 5840 5837 5835 5832 5829 5827 5824 5821 5818 5814
5897 5896 5894 5893 5891 5889 5887 5885 5883 5882 5880 5878 5876 5875 5873 5871 5869 5867 5865 5863 5861 5859 5857 5856 5854 5853 5851 5849 5847 5845 5843 5841 5838 5835 5833 5830 5827 5824 5821 5818 5815 5812 5809
5895 5894 5892 5891 5889 5887 5885 5883 5881 5879 5877 5875 5874 5872 5870 5868 5866 5864 5862 5860 5858 5856 5855 5853 5851 5849 5847 5845 5843 5841 5839 5836 5834 5831 5828 5825 5822 5819 5815 5812 5809 5806 5803
5892 5891 5890 5888 5886 5884 5883 5881 5878 5877 5875 5873 5871 5869 5867 5865 5863 5861 5859 5857 5855 5854 5852 5850 5848 5846 5843 5841 5839 5837 5834 5832 5829 5826 5824 5820 5817 5813 5810 5807 5803 5800 5796
5890 5888 5887 5885 5884 5882 5880 5878 5876 5874 5872 5870 5868 5866 5864 5862 5860 5858 5856 5854 5852 5850 5848 5846 5844 5842 5840 5837 5835 5833 5830 5827 5824 5821 5818 5815 5811 5808 5804 5801 5797 5793 5789
5886 5885 5883 5881 5880 5879 5877 5875 5873 5871 5869 5867 5865 5863 5860 5858 5856 5854 5853 5851 5849 5847 5845 5843 5841 5838 5836 5833 5831 5828 5825 5822 5819 5816 5813 5809 5805 5802 5798 5794 5791 5787 5783
5882 5880 5879 5877 5877 5875 5874 5872 5870 5868 5866 5864 5861 5859 5857 5855 5853 5851 5849 5847 5845 5843 5841 5839 5837 5834 5832 5829 5826 5824 5821 5818 5814 5811 5808 5804 5800 5796 5792 5788 5784 5780 5776
5877 5875 5874 5873 5873 5871 5870 5868 5866 5864 5862 5860 5858 5855 5853 5851 5849 5847 5845 5843 5841 5839 5837 5835 5832 5830 5827 5825 5822 5819 5816 5813 5809 5806 5802 5798 5794 5790 5786 5781 5777 5773 5768
5872 5870 5870 5869 5868 5867 5865 5864 5862 5860 5858 5856 5854 5851 5849 5847 5845 5843 5841 5839 5837 5834 5832 5830 5827 5825 5822 5819 5816 5813 5810 5807 5803 5800 5796 5792 5788 5783 5779 5774 5770 5765 5761
5867 5866 5864 5864 5863 5861 5860 5859 5857 5855 5853 5851 5849 5847 5845 5842 5840 5838 5836 5834 5832 5829 5827 5824 5822 5819 5817 5814 5811 5807 5804 5800 5797 5793 5789 5785 5781 5776 5772 5768 5763 5758 5753
5861 5860 5859 5858 5857 5856 5854 5853 5852 5850 5848 5846 5844 5842 5840 5837 5835 5833 5831 5828 5826 5824 5821 5819 5816 5813 5811 5808 5804 5801 5797 5794 5790 5786 5782 5778 5774 5769 5765 5760 5755 5750 5745
5855 5854 5853 5852 5851 5850 5848 5847 5846 5844 5842 5840 5838 5836 5834 5832 5829 5827 5825 5822 5820 5818 5815 5812 5810 5807 5804 5801 5798 5794 5791 5787 5783 5779 5775 5771 5766 5762 5757 5752 5747 5742 5737
5849 5847 5846 5846 5845 5843 5842 5841 5839 5838 5836 5833 5831 5829 5827 5825 5823 5821 5818 5816 5814 5811 5809 5806 5803 5800 5797 5794 5791 5787 5783 5779 5775 5771 5767 5763 5758 5754 5749 5744 5739 5734 5728
5841 5840 5839 5839 5838 5837 5835 5834 5832 5831 5829 5827 5825 5823 5821 5818 5816 5814 5811 5809 5807 5804 5802 5799 5796 5793 5790 5787 5783 5780 5776 5771 5767 5763 5759 5755 5750 5745 5740 5735 5730 5725 5720
5834 5833 5832 5831 5830 5828 5827 5826 5825 5823 5822 5820 5818 5816 5813 5811 5809 5806 5804 5802 5799 5797 5794 5791 5788 5785 5782 5779 5775 5771 5767 5763 5759 5755 5750 5746 5741 5736 5732 5727 5721 5716 5711
5826 5825 5824 5823 5822 5820 5819 5818 5816 5815 5814 5812 5810 5808 5805 5803 5801 5798 5796 5793 5791 5788 5786 5783 5780 5777 5773 5770 5766 5762 5758 5754 5750 5746 5742 5737 5732 5727 5722 5717 5712 5707 5702
5818 5817 5816 5815 5814 5812 5811 5809 5808 5807 5806 5804 5802 5800 5797 5795 5793 5790 5788 5785 5782 5779 5777 5774 5771 5767 5764 5761 5757 5753 5749 5745 5741 5737 5732 5727 5723 5718 5713 5708 5703 5698 5693
5809 5808 5807 5806 5805 5803 5802 5801 5800 5799 5797 5795 5793 5791 5789 5786 5784 5782 5779 5776 5773 5770 5767 5764 5761 5758 5755 5751 5748 5744 5740 5736 5731 5727 5723 5718 5713 5708 5703 5698 5693 5688 5683
5799 5799 5798 5797 5795 5794 5793 5792 5791 5789 5788 5786 5784 5782 5780 5777 5775 5772 5770 5767 5764 5761 5758 5755 5752 5748 5745 5741 5737 5734 5730 5726 5722 5717 5713 5708 5703 5699 5694 5689 5684 5679 5674
5791 5790 5789 5788 5787 5785 5784 5783 5782 5780 5778 5777 5775 5772 5770 5768 5766 5763 5761 5758 5755 5752 5748 5745 5742 5739 5735 5732 5728 5724 5720 5716 5712 5708 5703 5699 5694 5689 5684 5680 5675 5670 5665
5782 5781 5780 5779 5778 5777 5775 5774 5772 5771 5769 5767 5765 5763 5760 5758 5756 5754 5751 5748 5745 5742 5739 5735 5732 5729 5726 5722 5718 5714 5710 5706 5702 5698 5693 5689 5684 5680 5675 5670 5665 5661 5656
5774 5773 5771 5770 5769 5767 5766 5765 5763 5761 5759 5757 5755 5753 5751 5748 5746 5744 5741 5738 5735 5732 5729 5726 5723 5719 5716 5712 5709 5705 5701 5697 5692 5688 5684 5679 5675 5670 5666 5661 5656 5652 5647